Winona, MN

10:43 AM CDT on September 25, 2017 (GMT -0500)
Winona Municipal-Conrad

Weather History for KONA - January, 2014

Change the Weather History Date:

Monday, January 27, 2014

  Actual Average Record
Temperature  
Mean Temperature -4 °F -  
Max Temperature 0 °F 27 °F 51 °F (2002)
Min Temperature -9 °F 6 °F -9 °F (2000)
Degree Days  
Heating Degree Days 70    
Moisture  
Dew Point -17 °F    
Average Humidity 61    
Maximum Humidity 72    
Minimum Humidity 50    
Precipitation  
Precipitation 0.00 in - - ()
Sea Level Pressure  
Sea Level Pressure 30.32 in    
Wind  
Wind Speed 12 mph (WNW)    
Max Wind Speed 17 mph    
Max Gust Speed 26 mph    
Visibility 10 miles    
Events Snow    
Averages and records for this station are not official NWS values.
T = Trace of Precipitation, MM = Missing Value Source: NWS Daily Summary

Daily Weather History Graph

Daily Weather History Graph

Search for Another Location

Airport or City:

Trip Planner

Search our weather history database for the weather conditions in past years. The results will help you decide how hot, cold, wet, or windy it might be!

Date:

Astronomy

Jan. 27, 2014 Rise Set
Actual Time 7:29 AM CST 5:10 PM CST
Civil Twilight 6:58 AM CST 5:41 PM CST
Nautical Twilight 6:23 AM CST 6:16 PM CST
Astronomical Twilight 5:49 AM CST 6:50 PM CST
Moon 4:12 AM CST (1/27) 1:54 PM CST (1/27)
Length of Visible Light 10h 42m
Length of Day
9h 40m
Waning Crescent, 14% of the Moon is Illuminated
Jan 27
Waning Crescent
Jan 30
New
Feb 6
First Quarter
Feb 14
Full
Feb 22
Last Quarter

Hourly Weather History & Observations

Time (CST) Temp. Windchill Dew Point Humidity Pressure Visibility Wind Dir Wind Speed Gust Speed Precip Events Conditions
12:18 AM -0.4 °F -19.9 °F -9.4 °F 66% 30.02 in 10.0 mi NW 15.0 mph 26.5 mph N/A   Mostly Cloudy
12:38 AM -0.4 °F -17.6 °F -9.4 °F 66% 30.04 in 10.0 mi WNW 11.5 mph 24.2 mph N/A   Mostly Cloudy
12:57 AM -0.4 °F -19.9 °F -7.6 °F 72% 30.05 in 7.0 mi WNW 15.0 mph 23.0 mph N/A   Overcast
1:18 AM -0.4 °F -19.9 °F -9.4 °F 66% 30.06 in 10.0 mi WNW 15.0 mph 23.0 mph N/A   Overcast
1:38 AM -2.2 °F -21.5 °F -11.2 °F 66% 30.07 in 10.0 mi WNW 13.8 mph 20.7 mph N/A   Mostly Cloudy
1:57 AM -2.2 °F -20.7 °F -11.2 °F 66% 30.09 in 10.0 mi WNW 12.7 mph 18.4 mph N/A   Scattered Clouds
2:18 AM -2.2 °F -21.5 °F -13.0 °F 60% 30.11 in 10.0 mi WNW 13.8 mph 20.7 mph N/A   Clear
2:38 AM -4.0 °F -23.7 °F -14.8 °F 60% 30.12 in 10.0 mi WNW 13.8 mph 20.7 mph N/A   Clear
2:57 AM -5.8 °F -26.8 °F -14.8 °F 65% 30.14 in 10.0 mi NW 15.0 mph 20.7 mph N/A   Clear
3:18 AM -5.8 °F -26.8 °F -14.8 °F 65% 30.15 in 10.0 mi WNW 15.0 mph - N/A   Clear
3:38 AM -5.8 °F -24.4 °F -14.8 °F 65% 30.16 in 10.0 mi WNW 11.5 mph - N/A   Clear
3:57 AM -5.8 °F -25.2 °F -14.8 °F 65% 30.17 in 10.0 mi WNW 12.7 mph 17.3 mph N/A   Clear
4:18 AM -5.8 °F -23.4 °F -16.6 °F 60% 30.19 in 10.0 mi WNW 10.4 mph 18.4 mph N/A   Clear
4:38 AM -7.6 °F -29.8 °F -16.6 °F 65% 30.19 in 10.0 mi WNW 16.1 mph 21.9 mph N/A   Scattered Clouds
4:58 AM -7.6 °F -26.6 °F -16.6 °F 65% 30.20 in 2.5 mi WNW 11.5 mph 19.6 mph N/A Snow Light Snow
5:18 AM -7.6 °F -26.6 °F -18.4 °F 59% 30.21 in 10.0 mi NW 11.5 mph 17.3 mph N/A   Scattered Clouds
5:38 AM -7.6 °F -27.5 °F -18.4 °F 59% 30.22 in 10.0 mi NW 12.7 mph 20.7 mph N/A   Clear
5:57 AM -9.4 °F -31.4 °F -18.4 °F 65% 30.23 in 10.0 mi NW 15.0 mph - N/A   Clear
6:18 AM -9.4 °F -28.9 °F -18.4 °F 65% 30.24 in 10.0 mi NW 11.5 mph 17.3 mph N/A   Scattered Clouds
6:38 AM -9.4 °F -27.9 °F -18.4 °F 65% 30.26 in 10.0 mi NW 10.4 mph 16.1 mph N/A   Mostly Cloudy
6:57 AM -9.4 °F -28.9 °F -20.2 °F 59% 30.26 in 10.0 mi WNW 11.5 mph - N/A   Mostly Cloudy
7:18 AM -9.4 °F -27.9 °F -20.2 °F 59% 30.28 in 10.0 mi NW 10.4 mph 17.3 mph N/A   Clear
7:38 AM -9.4 °F -27.9 °F -20.2 °F 59% 30.29 in 10.0 mi NW 10.4 mph - N/A   Clear
7:57 AM -9.4 °F -29.8 °F -22.0 °F 54% 30.30 in 10.0 mi NW 12.7 mph - N/A   Clear
8:18 AM -9.4 °F -29.8 °F -22.0 °F 54% 30.32 in 10.0 mi NW 12.7 mph 16.1 mph N/A   Clear
8:38 AM -9.4 °F -26.8 °F -20.2 °F 59% 30.34 in 10.0 mi WNW 9.2 mph - N/A   Clear
8:57 AM -9.4 °F -27.9 °F -20.2 °F 59% 30.35 in 10.0 mi WNW 10.4 mph 17.3 mph N/A   Clear
9:18 AM -9.4 °F -28.9 °F -20.2 °F 59% 30.35 in 10.0 mi WNW 11.5 mph - N/A   Scattered Clouds
9:38 AM -9.4 °F -32.1 °F -20.2 °F 59% 30.35 in 10.0 mi WNW 16.1 mph 20.7 mph N/A   Clear
9:57 AM -7.6 °F -29.8 °F -18.4 °F 59% 30.37 in 10.0 mi NW 16.1 mph - N/A   Clear
10:18 AM -7.6 °F -30.5 °F -18.4 °F 59% 30.37 in 10.0 mi NW 17.3 mph 23.0 mph N/A   Mostly Cloudy
10:37 AM -7.6 °F -27.5 °F -20.2 °F 54% 30.38 in 10.0 mi WNW 12.7 mph 18.4 mph N/A   Mostly Cloudy
10:58 AM -7.6 °F -26.6 °F -20.2 °F 54% 30.39 in 10.0 mi WNW 11.5 mph 19.6 mph N/A   Scattered Clouds
11:18 AM -7.6 °F -27.5 °F -20.2 °F 54% 30.39 in 10.0 mi WNW 12.7 mph 18.4 mph N/A   Scattered Clouds
11:37 AM -5.8 °F -24.4 °F -18.4 °F 55% 30.39 in 10.0 mi WNW 11.5 mph 20.7 mph N/A   Clear
11:58 AM -5.8 °F -22.4 °F -18.4 °F 55% 30.39 in 10.0 mi WNW 9.2 mph - N/A   Clear
12:18 PM -5.8 °F -18.4 °F -18.4 °F 55% 30.39 in 10.0 mi West 5.8 mph - N/A   Clear
12:37 PM -5.8 °F -26.0 °F -18.4 °F 55% 30.39 in 10.0 mi WNW 13.8 mph 18.4 mph N/A   Clear
12:58 PM -5.8 °F -22.4 °F -18.4 °F 55% 30.39 in 10.0 mi West 9.2 mph - N/A   Clear
1:18 PM -5.8 °F -22.4 °F -18.4 °F 55% 30.39 in 10.0 mi WNW 9.2 mph 18.4 mph N/A   Clear
1:37 PM -5.8 °F -25.2 °F -18.4 °F 55% 30.39 in 10.0 mi WNW 12.7 mph - N/A   Clear
1:58 PM -4.0 °F -21.2 °F -16.6 °F 55% 30.39 in 10.0 mi WNW 10.4 mph - N/A   Clear
2:18 PM -4.0 °F -22.1 °F -16.6 °F 55% 30.39 in 10.0 mi WNW 11.5 mph 19.6 mph N/A   Clear
2:37 PM -4.0 °F -21.2 °F -16.6 °F 55% 30.39 in 10.0 mi WNW 10.4 mph 16.1 mph N/A   Clear
2:58 PM -2.2 °F -20.7 °F -16.6 °F 50% 30.39 in 10.0 mi WNW 12.7 mph - N/A   Clear
3:18 PM -2.2 °F -22.2 °F -16.6 °F 50% 30.39 in 10.0 mi NW 15.0 mph 18.4 mph N/A   Clear
3:37 PM -2.2 °F -18.9 °F -16.6 °F 50% 30.39 in 10.0 mi WNW 10.4 mph - N/A   Clear
3:58 PM -2.2 °F -19.9 °F -16.6 °F 50% 30.40 in 10.0 mi WNW 11.5 mph 16.1 mph N/A   Clear
4:17 PM -4.0 °F -23.7 °F -16.6 °F 55% 30.40 in 10.0 mi WNW 13.8 mph - N/A   Clear
4:38 PM -4.0 °F -22.1 °F -16.6 °F 55% 30.41 in 10.0 mi WNW 11.5 mph - N/A   Clear
4:58 PM -5.8 °F -19.9 °F -16.6 °F 60% 30.41 in 10.0 mi WNW 6.9 mph - N/A   Clear
5:17 PM -5.8 °F -22.4 °F -16.6 °F 60% 30.42 in 10.0 mi WNW 9.2 mph - N/A   Clear
5:38 PM -5.8 °F -18.4 °F -16.6 °F 60% 30.41 in 10.0 mi WNW 5.8 mph - N/A   Clear
5:58 PM -5.8 °F -18.4 °F -16.6 °F 60% 30.42 in 10.0 mi WNW 5.8 mph - N/A   Clear
6:17 PM -5.8 °F -14.5 °F -16.6 °F 60% 30.42 in 10.0 mi WNW 3.5 mph - N/A   Clear
6:38 PM -5.8 °F -18.4 °F -16.6 °F 60% 30.42 in 10.0 mi WNW 5.8 mph - N/A   Clear
6:58 PM -5.8 °F -19.9 °F -16.6 °F 60% 30.42 in 10.0 mi WNW 6.9 mph - N/A   Clear
7:17 PM -5.8 °F -22.4 °F -14.8 °F 65% 30.43 in 10.0 mi WNW 9.2 mph - N/A   Clear
7:38 PM -5.8 °F -19.9 °F -14.8 °F 65% 30.43 in 10.0 mi West 6.9 mph - N/A   Clear
7:58 PM -7.6 °F -22.1 °F -16.6 °F 65% 30.43 in 10.0 mi WNW 6.9 mph - N/A   Clear
8:17 PM -7.6 °F -24.6 °F -16.6 °F 65% 30.43 in 10.0 mi WNW 9.2 mph 17.3 mph N/A   Clear
8:38 PM -7.6 °F -25.7 °F -16.6 °F 65% 30.43 in 10.0 mi NW 10.4 mph - N/A   Clear
8:58 PM -7.6 °F -24.6 °F -16.6 °F 65% 30.43 in 10.0 mi WNW 9.2 mph 19.6 mph N/A   Clear
9:18 PM -7.6 °F -23.4 °F -16.6 °F 65% 30.44 in 10.0 mi WNW 8.1 mph 17.3 mph N/A   Clear
9:38 PM -7.6 °F -23.4 °F -16.6 °F 65% 30.44 in 10.0 mi WNW 8.1 mph - N/A   Clear
9:57 PM -7.6 °F -24.6 °F -16.6 °F 65% 30.44 in 10.0 mi WNW 9.2 mph 18.4 mph N/A   Clear
10:18 PM -7.6 °F -24.6 °F -16.6 °F 65% 30.43 in 10.0 mi WNW 9.2 mph - N/A   Clear
10:38 PM -7.6 °F -24.6 °F -16.6 °F 65% 30.42 in 10.0 mi WNW 9.2 mph - N/A   Clear
10:57 PM -9.4 °F -24.3 °F -16.6 °F 71% 30.42 in 10.0 mi WNW 6.9 mph - N/A   Clear
11:18 PM -9.4 °F -25.6 °F -16.6 °F 71% 30.42 in 10.0 mi WNW 8.1 mph - N/A   Clear
11:38 PM -9.4 °F -24.3 °F -16.6 °F 71% 30.42 in 10.0 mi WNW 6.9 mph - N/A   Clear
11:57 PM -9.4 °F -24.3 °F -18.4 °F 65% 30.42 in 10.0 mi NW 6.9 mph - N/A   Clear